sat.trackr.live / text

‹ back to catalog

STARLINK-32804

NORAD 62846 · 2025-019T

PAYLOAD ACTIVE UNKNOWN

§ Identity

Operator
Country
US
Launch date
2025-01-27
Launch site
AFETR
Launch vehicle
Mass (kg)
RCS (m²)

Purposes: comms

External: N2YO · Heavens-Above · Gunter

§ Orbital elements

Epoch: 2026-09-20T16:00:01.998720Z

Period
94.27 min
Inclination
43.0011°
Eccentricity
0.0001275
Mean motion
15.27562148 rev/d
Perigee alt
482.2 km
Apogee alt
484.0 km
Semi-major
6,861.2 km
B*
3.6679e-5
RAAN
67.8957°
Arg perigee
259.4369°
Mean anomaly
318.7380°
Rev number
582

§ Raw data

STARLINK-328041 62846U 25019T   26263.66668980  .00000747  00000+0  36679-4 0  99932 62846  43.0011  67.8957 0001275 259.4369 318.7380 15.27562148  5828

JSON: /api/v1/satellites/62846 · /tle

For live sub-satellite position, see the globe view (requires WebGL).

§ Visibility from observer

Set your observer location to see the next 7 days of passes ≥ 10°. The values pass through the URL so the page stays shareable.

No JS? Fill the form by hand. The geolocation button needs JavaScript.